Location: Bishop's University Astronomical Observatory
(45.3661°N, 71.8475°W)
Time: 05:13:39
(UTC-05:00)

CZ-4C R/B - Visible Passes

Search period start: 23 February 2018 00:00
Search period end: 05 March 2018 00:00
Orbit: 697 x 1305 km, 63.4° (Epoch: 22 February)

Date Brightness Start Highest point End Pass type
(mag) Time Alt. Az. Time Alt. Az. Time Alt. Az.
23 Feb 3.3 18:47:52 10° NNW 18:54:26 43° NE 18:58:39 24° E visible
23 Feb 3.2 20:36:19 10° NW 20:43:23 58° WSW 20:43:53 57° SW visible
23 Feb 5.3 22:28:07 10° W 22:29:06 11° W 22:29:06 11° W visible
24 Feb 2.8 19:21:16 10° NW 19:28:20 72° NE 19:31:56 35° SE visible
24 Feb 4.2 21:10:22 10° NW 21:16:39 31° WSW 21:17:10 31° WSW visible
25 Feb 3.4 18:06:28 10° NNW 18:12:51 38° NE 18:20:00 10° ESE visible
25 Feb 3.1 19:54:49 10° NW 20:01:56 68° WSW 20:05:22 36° SSE visible
25 Feb 5.0 21:45:35 10° WNW 21:49:38 15° WSW 21:50:38 15° WSW visible
26 Feb 3.0 18:39:50 10° NW 18:46:49 63° NE 18:53:43 14° SE visible
26 Feb 4.1 20:28:42 10° NW 20:35:18 37° WSW 20:39:00 25° SSW visible
27 Feb 3.0 19:13:20 10° NW 19:20:30 78° SW 19:27:33 14° SSE visible
27 Feb 5.0 21:03:28 10° WNW 21:08:21 19° WSW 21:12:50 12° SW visible
28 Feb 3.1 17:58:25 10° NNW 18:05:17 55° NE 18:13:00 10° ESE visible
28 Feb 3.9 19:47:07 10° NW 19:53:55 44° WSW 20:01:22 10° S visible
01 Mar 3.0 18:31:52 10° NW 18:39:02 89° SW 18:47:04 10° SE visible
01 Mar 4.9 20:21:33 10° WNW 20:27:03 23° WSW 20:32:54 10° SSW visible
02 Mar 3.8 19:05:33 10° NW 19:12:31 51° WSW 19:20:11 10° SSE visible
03 Mar 4.8 19:39:46 10° WNW 19:45:44 27° WSW 19:52:08 10° SSW visible
04 Mar 3.6 18:24:02 10° NW 18:31:06 60° WSW 18:38:56 10° SSE visible
04 Mar 5.5 20:15:39 10° W 20:18:39 13° WSW 20:21:43 10° SW visible
